Total_Precipitation_Accumulation
0.50 0.47 0.13 0.13 0.05 0.01 0.00 0.00 0.00 0.00 0.00 0.00 0.00 0.00 0.00 0.00 0.00 0.00 0.00 0.00 0.00 0.01 0.01 0.01 0.00 0.01 0.04 0.05 0.02 0.00 0.01 0.01 0.02 0.06 0.11 0.20 0.19 0.13 0.09 0.08 0.06 0.07 0.14
1.09 0.73 0.87 0.36 0.07 0.03 0.01 0.00 0.00 0.00 0.00 0.00 0.00 0.00 0.00 0.00 0.00 0.00 0.00 0.01 0.01 0.01 0.01 0.01 0.00 0.00 0.01 0.02 0.00 0.00 0.00 0.01 0.01 0.06 0.08 0.14 0.16 0.13 0.08 0.07 0.07 0.06 0.10
1.61 1.09 1.15 1.28 0.66 0.29 0.10 0.02 0.01 0.00 0.01 0.00 0.00 0.00 0.01 0.01 0.00 0.00 0.00 0.01 0.00 0.00 0.00 0.01 0.01 0.02 0.01 0.00 0.00 0.00 0.00 0.00 0.01 0.03 0.05 0.06 0.03 0.08 0.06 0.04 0.05 0.05 0.06
1.05 0.70 1.40 1.48 1.13 0.79 0.43 0.16 0.04 0.01 0.01 0.00 0.00 0.00 0.00 0.01 0.01 0.00 0.01 0.00 0.00 0.00 0.00 0.01 0.02 0.01 0.01 0.00 0.00 0.00 0.00 0.00 0.00 0.02 0.02 0.06 0.08 0.10 0.06 0.05 0.07 0.04 0.02
1.00 0.51 0.91 1.32 1.37 1.01 0.60 0.36 0.16 0.02 0.00 0.00 0.01 0.00 0.00 0.00 0.00 0.00 0.00 0.00 0.00 0.00 0.01 0.01 0.01 0.01 0.00 0.00 0.00 0.00 0.00 0.00 0.00 0.01 0.00 0.09 0.08 0.09 0.10 0.07 0.05 0.05 0.04
1.33 0.98 0.90 1.46 1.77 2.20 1.40 0.76 0.39 0.12 0.01 0.03 0.02 0.00 0.00 0.00 0.00 0.00 0.00 0.00 0.00 0.00 0.01 0.01 0.01 0.00 0.00 0.00 0.00 0.00 0.00 0.00 0.00 0.00 0.04 0.09 0.10 0.03 0.11 0.11 0.05 0.10 0.08
2.24 2.01 1.35 2.09 2.87 3.97 4.48 3.22 1.88 0.79 0.19 0.07 0.03 0.01 0.00 0.00 0.01 0.00 0.00 0.00 0.01 0.00 0.00 0.00 0.00 0.00 0.00 0.00 0.00 0.00 0.00 0.00 0.00 0.00 0.05 0.11 0.19 0.05 0.08 0.14 0.05 0.08 0.11
3.15 2.80 2.71 2.22 2.69 3.57 5.75 5.55 3.72 3.08 1.54 0.30 0.06 0.01 0.00 0.00 0.01 0.01 0.00 0.01 0.01 0.00 0.00 0.00 0.00 0.00 0.00 0.00 0.00 0.00 0.00 0.00 0.00 0.00 0.03 0.02 0.02 0.00 0.00 0.04 0.07 0.07 0.10
5.65 5.53 4.88 3.84 2.91 2.25 2.91 3.92 3.77 2.56 1.87 1.11 0.16 0.01 0.00 0.00 0.02 0.01 0.01 0.00 0.00 0.00 0.00 0.00 0.00 0.00 0.00 0.00 0.00 0.00 0.00 0.00 0.00 0.00 0.00 0.00 0.01 0.01 0.04 0.04 0.07 0.09 0.08
8.06 7.51 5.81 4.83 3.08 1.45 1.74 1.94 1.97 3.21 2.01 0.93 0.30 0.05 0.01 0.00 0.01 0.00 0.01 0.00 0.00 0.00 0.00 0.00 0.00 0.00 0.00 0.00 0.00 0.00 0.00 0.00 0.00 0.00 0.00 0.00 0.00 0.02 0.04 0.03 0.03 0.05 0.04
6.02 6.49 6.27 4.33 2.93 1.46 0.85 0.88 0.74 1.91 2.39 1.80 0.38 0.33 0.07 0.01 0.02 0.01 0.03 0.01 0.01 0.00 0.00 0.00 0.00 0.00 0.00 0.00 0.00 0.00 0.00 0.00 0.00 0.00 0.00 0.00 0.00 0.00 0.01 0.00 0.00 0.02 0.03
3.37 3.56 5.20 4.33 2.91 2.07 1.52 0.86 0.43 0.74 1.64 1.91 0.78 0.29 0.08 0.06 0.09 0.06 0.01 0.00 0.00 0.00 0.00 0.00 0.00 0.00 0.00 0.00 0.00 0.00 0.00 0.00 0.00 0.00 0.00 0.00 0.00 0.00 0.00 0.00 0.00 0.00 0.00
1.24 1.55 2.34 3.54 3.90 2.96 1.75 0.98 0.49 0.67 1.29 1.81 1.22 0.38 0.12 0.15 0.18 0.09 0.01 0.00 0.00 0.00 0.00 0.00 0.00 0.00 0.00 0.00 0.00 0.00 0.00 0.00 0.00 0.00 0.00 0.00 0.00 0.00 0.00 0.00 0.00 0.00 0.00
0.71 0.94 1.78 2.16 2.13 2.40 2.44 1.16 0.64 0.40 0.99 1.35 0.99 0.50 0.24 0.16 0.10 0.18 0.01 0.00 0.00 0.00 0.00 0.00 0.00 0.00 0.00 0.00 0.00 0.00 0.00 0.00 0.00 0.00 0.00 0.00 0.00 0.00 0.00 0.01 0.00 0.00 0.00
0.45 0.69 1.26 1.07 0.83 0.94 1.61 1.74 0.90 0.60 0.70 1.12 0.78 0.44 0.23 0.15 0.13 0.11 0.02 0.00 0.00 0.00 0.00 0.00 0.00 0.00 0.00 0.00 0.00 0.00 0.00 0.00 0.00 0.00 0.00 0.00 0.00 0.00 0.00 0.02 0.02 0.01 0.00
0.38 0.57 0.91 0.73 0.71 0.58 0.65 1.08 1.23 0.66 0.68 0.88 0.57 0.38 0.28 0.17 0.14 0.13 0.06 0.02 0.01 0.01 0.00 0.00 0.00 0.00 0.00 0.00 0.00 0.00 0.00 0.00 0.00 0.00 0.00 0.00 0.00 0.00 0.00 0.00 0.03 0.02 0.01
0.41 0.62 1.01 1.26 0.61 0.71 0.67 0.77 1.06 0.81 0.47 0.62 0.70 0.58 0.49 0.23 0.09 0.10 0.11 0.12 0.08 0.00 0.00 0.00 0.00 0.00 0.00 0.00 0.00 0.00 0.00 0.00 0.00 0.00 0.00 0.00 0.00 0.00 0.00 0.01 0.01 0.04 0.03
0.37 0.45 0.95 1.52 0.94 0.83 0.79 0.85 0.92 0.75 0.57 0.42 0.56 0.49 0.30 0.13 0.10 0.09 0.09 0.08 0.12 0.05 0.00 0.00 0.00 0.00 0.00 0.00 0.00 0.00 0.00 0.00 0.00 0.00 0.00 0.00 0.00 0.00 0.00 0.00 0.01 0.01 0.02
0.22 0.33 0.72 1.02 1.16 1.12 0.85 0.82 0.62 0.47 0.49 0.40 0.37 0.24 0.21 0.13 0.07 0.04 0.08 0.10 0.08 0.06 0.02 0.00 0.00 0.00 0.00 0.00 0.00 0.00 0.00 0.00 0.00 0.00 0.00 0.00 0.00 0.00 0.00 0.00 0.00 0.00 0.01
0.17 0.43 0.85 0.92 1.06 1.05 0.65 0.41 0.28 0.30 0.31 0.36 0.26 0.16 0.16 0.12 0.05 0.03 0.07 0.13 0.18 0.09 0.04 0.02 0.04 0.02 0.01 0.00 0.00 0.00 0.00 0.00 0.00 0.00 0.00 0.00 0.00 0.00 0.00 0.00 0.00 0.00 0.00
0.12 0.37 0.48 0.71 0.87 0.57 0.34 0.26 0.21 0.18 0.19 0.23 0.20 0.12 0.10 0.10 0.08 0.05 0.10 0.11 0.20 0.12 0.06 0.03 0.03 0.03 0.02 0.01 0.00 0.00 0.00 0.00 0.00 0.00 0.00 0.00 0.00 0.01 0.00 0.00 0.00 0.00 0.00
0.16 0.37 0.47 0.32 0.27 0.27 0.26 0.14 0.06 0.06 0.06 0.08 0.11 0.06 0.06 0.11 0.09 0.07 0.09 0.07 0.09 0.11 0.05 0.02 0.03 0.04 0.02 0.02 0.00 0.04 0.04 0.02 0.00 0.00 0.00 0.00 0.01 0.02 0.02 0.01 0.00 0.00 0.00
0.08 0.12 0.24 0.13 0.07 0.06 0.09 0.10 0.05 0.03 0.07 0.10 0.10 0.10 0.06 0.07 0.08 0.11 0.10 0.09 0.10 0.15 0.07 0.06 0.03 0.04 0.20 0.08 0.02 0.11 0.16 0.09 0.11 0.02 0.00 0.00 0.00 0.00 0.02 0.05 0.03 0.01 0.00
0.03 0.05 0.23 0.13 0.06 0.04 0.04 0.05 0.05 0.07 0.07 0.05 0.05 0.04 0.03 0.06 0.08 0.15 0.19 0.18 0.15 0.21 0.16 0.12 0.09 0.08 0.49 0.32 0.19 0.08 0.06 0.08 0.26 0.20 0.04 0.00 0.00 0.01 0.01 0.04 0.04 0.03 0.03
0.06 0.08 0.20 0.15 0.16 0.08 0.10 0.14 0.25 0.18 0.13 0.12 0.05 0.07 0.05 0.12 0.16 0.20 0.26 0.31 0.26 0.24 0.31 0.39 0.33 0.28 0.43 0.31 0.12 0.14 0.08 0.07 0.14 0.13 0.10 0.08 0.03 0.03 0.03 0.03 0.03 0.03 0.07
0.02 0.11 0.19 0.14 0.21 0.23 0.26 0.21 0.21 0.29 0.17 0.15 0.15 0.23 0.24 0.30 0.30 0.35 0.33 0.28 0.32 0.32 0.33 0.39 0.44 0.54 0.53 0.49 0.38 0.36 0.31 0.26 0.18 0.17 0.14 0.15 0.21 0.15 0.10 0.05 0.01 0.02 0.07